TimeEST,TemperatureF,Dew PointF,Humidity,Sea Level PressureIn,VisibilityMPH,Wind Direction,Wind SpeedMPH,Gust SpeedMPH,PrecipitationIn,Events,Conditions,WindDirDegrees,DateUTC
12:15 AM,53.6,46.4,77,30.24,10.0,NNW,8.1,-,N/A,,Overcast,340,2012-11-18 05:15:00
12:35 AM,53.6,46.4,77,30.24,10.0,North,10.4,-,N/A,,Overcast,350,2012-11-18 05:35:00
12:55 AM,53.6,46.4,77,30.23,10.0,North,8.1,-,N/A,,Overcast,350,2012-11-18 05:55:00
1:15 AM,51.8,46.4,82,30.24,10.0,North,9.2,-,N/A,,Overcast,350,2012-11-18 06:15:00
1:35 AM,51.8,46.4,82,30.23,10.0,NNW,9.2,-,N/A,,Overcast,340,2012-11-18 06:35:00
1:55 AM,51.8,48.2,88,30.22,10.0,North,6.9,-,N/A,,Overcast,350,2012-11-18 06:55:00
2:15 AM,51.8,48.2,88,30.22,10.0,NNW,10.4,-,N/A,,Overcast,340,2012-11-18 07:15:00
2:35 AM,51.8,48.2,88,30.22,10.0,North,8.1,-,N/A,,Overcast,360,2012-11-18 07:35:00
2:55 AM,51.8,48.2,88,30.21,10.0,North,8.1,-,N/A,,Overcast,350,2012-11-18 07:55:00
3:15 AM,51.8,48.2,88,30.21,10.0,North,6.9,-,N/A,,Overcast,360,2012-11-18 08:15:00
3:35 AM,51.8,48.2,88,30.21,10.0,North,8.1,-,N/A,,Overcast,350,2012-11-18 08:35:00
3:55 AM,51.8,48.2,88,30.21,10.0,NNW,9.2,-,N/A,,Overcast,340,2012-11-18 08:55:00
4:15 AM,51.8,48.2,88,30.21,10.0,NNW,9.2,-,N/A,,Overcast,340,2012-11-18 09:15:00
4:35 AM,51.8,48.2,88,30.22,10.0,North,9.2,-,N/A,,Overcast,350,2012-11-18 09:35:00
4:55 AM,51.8,48.2,88,30.23,10.0,North,8.1,-,N/A,,Overcast,350,2012-11-18 09:55:00
5:15 AM,51.8,48.2,88,30.22,10.0,North,8.1,-,N/A,,Overcast,350,2012-11-18 10:15:00
5:35 AM,51.8,48.2,88,30.22,10.0,North,9.2,-,N/A,,Overcast,360,2012-11-18 10:35:00
5:55 AM,51.8,48.2,88,30.24,10.0,North,8.1,-,N/A,,Overcast,360,2012-11-18 10:55:00
6:15 AM,51.8,48.2,88,30.24,10.0,North,10.4,-,N/A,,Overcast,350,2012-11-18 11:15:00
6:35 AM,51.8,48.2,88,30.24,10.0,North,8.1,-,N/A,,Overcast,360,2012-11-18 11:35:00
6:50 AM,51.8,48.2,88,30.24,10.0,North,10.4,-,N/A,,Overcast,10,2012-11-18 11:50:00
7:50 AM,53.6,48.2,82,30.25,10.0,North,11.5,-,N/A,,Overcast,360,2012-11-18 12:50:00
8:50 AM,53.6,48.2,82,30.27,10.0,North,9.2,-,N/A,,Scattered Clouds,360,2012-11-18 13:50:00
9:50 AM,57.2,48.2,72,30.27,10.0,North,11.5,-,N/A,,Scattered Clouds,360,2012-11-18 14:50:00
10:50 AM,59.0,50.0,72,30.27,10.0,NNE,10.4,-,N/A,,Clear,20,2012-11-18 15:50:00
11:50 AM,62.6,51.8,68,30.24,10.0,North,6.9,-,N/A,,Clear,360,2012-11-18 16:50:00
12:50 PM,64.4,51.8,64,30.21,10.0,NE,6.9,-,N/A,,Clear,40,2012-11-18 17:50:00
2:50 PM,68.0,53.6,60,30.17,10.0,NNE,9.2,-,N/A,,Clear,30,2012-11-18 19:50:00
3:50 PM,68.0,53.6,60,30.17,10.0,NNE,9.2,-,N/A,,Clear,20,2012-11-18 20:50:00
4:50 PM,68.0,51.8,56,30.17,10.0,North,9.2,-,N/A,,Clear,360,2012-11-18 21:50:00
5:50 PM,59.0,55.4,88,30.18,10.0,Calm,Calm,-,N/A,,Clear,0,2012-11-18 22:50:00
6:50 PM,55.4,51.8,88,30.21,10.0,NNE,3.5,-,N/A,,Clear,20,2012-11-18 23:50:00
7:50 PM,50.0,50.0,100,30.22,10.0,NNE,4.6,-,N/A,,Clear,30,2012-11-19 00:50:00
8:15 PM,51.8,50.0,94,30.22,10.0,Calm,Calm,-,N/A,,Partly Cloudy,0,2012-11-19 01:15:00
8:35 PM,57.2,51.8,82,30.22,10.0,North,8.1,-,N/A,,Clear,350,2012-11-19 01:35:00
8:55 PM,57.2,51.8,82,30.22,10.0,North,8.1,16.1,N/A,,Clear,350,2012-11-19 01:55:00
9:15 PM,57.2,51.8,82,30.22,10.0,North,6.9,-,N/A,,Clear,360,2012-11-19 02:15:00
9:35 PM,57.2,51.8,82,30.22,10.0,North,10.4,-,N/A,,Scattered Clouds,350,2012-11-19 02:35:00
9:55 PM,57.2,50.0,77,30.22,10.0,North,10.4,19.6,N/A,,Overcast,10,2012-11-19 02:55:00
10:15 PM,57.2,50.0,77,30.22,10.0,North,10.4,16.1,N/A,,Overcast,350,2012-11-19 03:15:00
10:35 PM,57.2,50.0,77,30.22,10.0,North,11.5,-,N/A,,Overcast,10,2012-11-19 03:35:00
10:55 PM,57.2,50.0,77,30.22,10.0,North,8.1,-,N/A,,Overcast,350,2012-11-19 03:55:00
11:35 PM,57.2,50.0,77,30.21,10.0,North,5.8,-,N/A,,Overcast,350,2012-11-19 04:35:00
11:55 PM,57.2,50.0,77,30.21,10.0,North,8.1,-,N/A,,Overcast,360,2012-11-19 04:55:00